Location: Maignaut
(43.8886°N, 0.4051°E)
Time: 19:07:52
(UTC+00:00)

CZ-4C R/B - Pass Details

Date: 17 January 2021
Orbit: 617 x 1385 km, 63.4° (Epoch: 28 February)

Event Time Altitude Azimuth Distance (km) Brightness Sun altitude
Rises 17:13:47 0° 224° (SW) 2,997 6.6 -4.8°
Reaches altitude 10° 17:15:56 10° 227° (SW) 2,150 5.8 -5.2°
Maximum altitude 17:20:47 68° 310° (NW) 840 2.4 -6.0°
Drops below altitude 10° 17:26:40 10° 34° (NNE) 2,590 4.2 -6.9°
Enters shadow 17:28:34 - 36° (NE) 3,315 4.8 -7.3°
